{"data":{"norad_id":81078,"epoch":"2026-05-29T13:38:39.219936Z","epoch_age_seconds":9861835,"freshness":"OLD","line1":"1 81078U          26149.56850949 -.00001038  00000+0 -29572-1 0  9991","line2":"2 81078  65.1101 353.4722 0194331 328.6606  58.3153 11.22442514513468","mean_motion":11.22442514,"eccentricity":0.0194331,"inclination_deg":65.1101,"raan_deg":353.4722,"arg_perigee_deg":328.6606,"mean_anomaly_deg":58.3153,"bstar":-0.029572,"rev_number":51346,"period_min":128.29164808346,"perigee_km":1884.201784223,"apogee_km":2211.6916389747,"semimajor_km":8426.0837115989,"source":"CELESTRAK","updated_at":"2026-06-28T09:00:22.788372Z"}}